Location: İstanbul
(41.0082°N, 28.9784°E)
Time: 03:11:55
(UTC+03:00)

DOVE 4 - Pass Details

Date: 02 May 2024
Orbit: 582 x 778 km, 97.7° (Epoch: 28 May)

Event Time Altitude Azimuth Distance (km) Brightness Sun altitude
Rises 21:15:56 0° 37° (NE) 3,016 ? -13.1°
Reaches altitude 10° 21:19:53 10° 72° (ENE) 2,150 ? -13.7°
Enters shadow 21:20:39 11° 81° (E) 2,092 ? -13.8°
